sat.trackr.live / text

‹ back to catalog

STARLINK-11176 [DTC]

NORAD 60060 · 2024-113B

PAYLOAD ACTIVE UNKNOWN

§ Identity

Operator
Country
US
Launch date
2024-06-19
Launch site
AFWTR
Launch vehicle
Mass (kg)
RCS (m²)

Purposes: comms

External: N2YO · Heavens-Above · Gunter

§ Orbital elements

Epoch: 2026-09-21T10:20:58.356672Z

Period
91.74 min
Inclination
53.1586°
Eccentricity
0.0001762
Mean motion
15.69631103 rev/d
Perigee alt
358.8 km
Apogee alt
361.1 km
Semi-major
6,738.1 km
B*
1.4787e-4
RAAN
306.3491°
Arg perigee
56.2816°
Mean anomaly
303.8370°
Rev number
13,030

§ Raw data

STARLINK-11176 [DTC]1 60060U 24113B   26264.43123098  .00017305  00000+0  14787-3 0  99982 60060  53.1586 306.3491 0001762  56.2816 303.8370 15.69631103130308

JSON: /api/v1/satellites/60060 · /tle

For live sub-satellite position, see the globe view (requires WebGL).

§ Visibility from observer

Set your observer location to see the next 7 days of passes ≥ 10°. The values pass through the URL so the page stays shareable.

No JS? Fill the form by hand. The geolocation button needs JavaScript.